Flag for U.S.A. Weather past 2 weeks in Little Rock, Arkansas, U.S.A.

Now
74 °F

Passing clouds.


Feels Like: 73 °F
Forecast: 73 / 96 °F
Wind: No wind

Location: Adams Field

Current Time: Aug 4, 2015 at 7:07:35 AM

Latest Report: Aug 4, 2015 at 5:53 AM


Visibility: 10 mi

Pressure: 29.96 "Hg

Humidity: 85%

Dew point: 69 °F

Location of Little RockLocation

Historic Weather in Little Rock — Graph

°F

Little Rock temperature yesterday

Maximum temperature yesterday: 96 °F (at 12:53 PM)
Minimum temperature yesterday: 74 °F (at 4:53 AM)
Average temperature yesterday: 85 °F

Past Weeks' High & Low Weather Summary

 TemperatureHumidityPressure
High101 °F (Jul 29, 1:53 PM)94% (Jul 26, 3:53 AM)30.13 "Hg (Jul 26, 3:53 AM)
Low72 °F (Jul 31, 5:53 AM)31% (Aug 1, 1:53 PM)29.81 "Hg (Jul 20, 6:53 PM)
Average86 °F63%29.95 "Hg
* Reported Jul 20 5:53 AM — Aug 4 5:53 AM, Little Rock, Weather by CustomWeather, © 2015

Note: Actual official high and low records may vary slightly from our data, if they occured in-between our weather recording intervals... More about our weather records

Advertising

Little Rock weather history for previous 24 hours

 ConditionsComfort  
Time TempWeatherWind HumidityBarometerVisibility
5:53 AM
Tue, Aug 4
74 °FPassing clouds.No wind85%29.96 "Hg10 mi
4:53 AM75 °FPassing clouds.No wind85%29.95 "Hg9 mi
3:53 AM76 °FClear.3 mph85%29.94 "Hg9 mi
2:53 AM77 °FPassing clouds.No wind79%29.93 "Hg10 mi
1:53 AM78 °FPassing clouds.No wind76%29.93 "Hg10 mi
12:53 AM79 °FPassing clouds.No wind74%29.92 "Hg10 mi
11:53 PM
Mon, Aug 3
80 °FPassing clouds.No wind69%29.93 "Hg10 mi
10:53 PM82 °FPassing clouds.No wind70%29.93 "Hg10 mi
9:53 PM83 °FPassing clouds.No wind63%29.93 "Hg10 mi
8:53 PM85 °FPartly sunny.3 mph59%29.91 "Hg10 mi
7:53 PM88 °FPartly sunny.5 mph50%29.91 "Hg10 mi
6:53 PM91 °FPartly sunny.5 mph45%29.90 "Hg10 mi
5:53 PM94 °FBroken clouds.7 mph36%29.90 "Hg10 mi
4:53 PM93 °FBroken clouds.7 mph40%29.91 "Hg10 mi
3:53 PM96 °FBroken clouds.7 mph34%29.91 "Hg10 mi
2:53 PM96 °FBroken clouds.7 mph35%29.92 "Hg10 mi
1:53 PM96 °FBroken clouds.8 mph36%29.93 "Hg10 mi
12:53 PM96 °FScattered clouds.8 mph35%29.94 "Hg10 mi
11:53 AM95 °FScattered clouds.7 mph37%29.95 "Hg10 mi
10:53 AM92 °FScattered clouds.7 mph43%29.96 "Hg10 mi
9:53 AM89 °FPartly sunny.7 mph46%29.95 "Hg10 mi
8:53 AM84 °FPartly sunny.3 mph59%29.94 "Hg10 mi
7:53 AM79 °FScattered clouds.No wind74%29.93 "Hg10 mi
Weather by CustomWeather, © 2015

See weather overviewHow to use our weather pages